Content
SEND FEEDBACK

Daily
Averages
Monthly
Summary
United States of America

CAMP QUEZON, GUAM


Home > North America > United States > Guam
Elevation: 269 feet     Latitude: 13 28N     Longitude: 144 48E

WEATHER
 
SELECT A DAY
Number of Records: 209,106;   Date Range: 1/1/95 - 8/12/14
 
SHARE

PRINT THIS DATA

[ ← Previous Day ]
WEATHER ALMANAC - MARCH 25, 2014
[ Next Day → ]
[ °C ]   °F
Weather ElementAverageHighLow
Temperature82.4 °F88 °F (12:54 pm)79 °F (1:54 am)
Dewpoint72.2 °F75.9 °F (9:54 pm)70 °F (2:54 pm)
Humidity71.9 %88 % (10:54 pm)57 % (12:54 pm)
Barometer29.90 in29.95 in (9:54 am)29.84 in (3:54 pm)
Wind Speed14 mph19.6 mph (8:54 am)
Wind Gust26.5 mph (11:54 am)
Weather ElementAverage
Visibility9.9 mi
Wind DirectionENE (70.9 °)

Weather ElementTotal
Precipitation0.05 in
Cooling Degree Days18.5 (Base 65)
Growing Degree Days33.5 (Base 50)
Averaged from 23 records on March 25, 2014
WEATHER CONDITIONS BREAKOUT
WIND DIRECTION BREAKOUT
WEATHER BY HOUR - MARCH 25, 2014
[ °C ]   °F
Local TimeTemperatureDewpointHumidityBarometerVisibilityWind DirectionWind SpeedGust SpeedPrecipitationEventsConditions
1:54 AM79.0 °F71.1 °F77 %29.88 in10.0 miENE (70°)8.1 mphClear
2:54 AM79.0 °F72.0 °F79 %29.87 in10.0 miENE (60°)11.5 mphClear
3:54 AM79.0 °F72.0 °F79 %29.87 in10.0 miENE (60°)10.4 mphPartly Cloudy
4:54 AM79.0 °F71.1 °F77 %29.88 in10.0 miENE (60°)11.5 mphClear
5:54 AM79.0 °F71.1 °F77 %29.88 in10.0 miENE (60°)11.5 mphPartly Cloudy
6:54 AM80.1 °F72.0 °F76 %29.91 in10.0 miENE (60°)11.5 mphOvercast
7:54 AM81.0 °F71.1 °F72 %29.93 in10.0 miENE (70°)15.0 mph0.00 inMostly Cloudy
8:54 AM84.0 °F71.1 °F65 %29.94 in10.0 miENE (70°)19.6 mph23.0 mph0.00 inOvercast
9:54 AM84.9 °F72.0 °F65 %29.95 in10.0 miEast (80°)17.3 mph24.2 mphScattered Clouds
10:54 AM86.0 °F71.1 °F61 %29.94 in10.0 miEast (80°)15.0 mph23.0 mphScattered Clouds
11:54 AM87.1 °F72.0 °F61 %29.93 in10.0 miEast (80°)17.3 mph26.5 mphPartly Cloudy
12:54 PM88.0 °F71.1 °F57 %29.90 in10.0 miENE (70°)17.3 mphPartly Cloudy
1:54 PM87.1 °F71.1 °F59 %29.87 in10.0 miEast (80°)16.1 mphPartly Cloudy
2:54 PM87.1 °F70.0 °F57 %29.86 in10.0 miEast (80°)18.4 mphPartly Cloudy
3:54 PM86.0 °F71.1 °F61 %29.84 in10.0 miEast (80°)13.8 mphMostly Cloudy
4:54 PM84.0 °F72.0 °F67 %29.85 in10.0 miEast (80°)13.8 mph24.2 mphClear
5:54 PM82.9 °F73.0 °F72 %29.87 in10.0 miEast (80°)17.3 mph21.9 mphClear
6:54 PM82.0 °F73.0 °F74 %29.88 in10.0 miENE (70°)13.8 mphClear
7:54 PM82.0 °F73.9 °F76 %29.90 in10.0 miENE (60°)12.7 mphScattered Clouds
8:54 PM81.0 °F73.9 °F79 %29.91 in10.0 miENE (70°)13.8 mphPartly Cloudy
9:54 PM80.1 °F75.9 °F87 %29.92 in8.0 miENE (70°)13.8 mph0.04 inRainLight Rain
10:54 PM79.0 °F75.0 °F88 %29.93 in10.0 miENE (60°)12.7 mph0.01 inPartly Cloudy
11:54 PM79.0 °F75.0 °F88 %29.92 in10.0 miEast (80°)10.4 mphPartly Cloudy
Hourly data recorded from PGUM, located miles away from Camp Quezon, Guam







STORIES FROM OUR PARTNERS